Flag for Belgium Weather past 2 weeks in Mons, Belgium

Now
61 °F

Partly sunny.


Feels Like: 61 °F
Forecast: 52 / 63 °F
Wind: 9 mph from Southwest

Location: Chievres

Current Time: Aug 30, 2014 at 7:12:53 PM

Latest Report: Aug 30, 2014 at 6:25 PM


Visibility: N/A

Pressure: 30.01 "Hg

Humidity: 94%

Dew point: 59 °F

Location of MonsLocation

Historic Weather in Mons — Graph

°F

Mons temperature yesterday

Maximum temperature yesterday: 70 °F (at 3:25 PM)
Minimum temperature yesterday: 57 °F (at 12:25 AM)
Average temperature yesterday: 62 °F

Past Weeks' High & Low Weather Summary

 TemperatureHumidityPressure
High72 °F (Aug 28, 3:25 PM)100% (Aug 16, 2:25 AM)30.15 "Hg (Aug 16, 2:25 AM)
Low45 °F (Aug 20, 5:25 AM)46% (Aug 24, 4:25 PM)29.59 "Hg (Aug 26, 2:57 AM)
Average58 °F85%29.94 "Hg
* Reported Aug 15 5:25 PM — Aug 30 5:25 PM, Mons, Weather by CustomWeather, © 2014

Note: Actual official high and low records may vary slightly from our data, if they occured in-between our weather recording intervals... More about our weather records

Advertising

Mons weather history for previous 24 hours

 ConditionsComfort  
Time TempWeatherWind HumidityBarometerVisibility
5:25 PM
Aug 30
63 °FBroken clouds.13 mph94%30.04 "Hg4 mi
4:56 PM63 °FBroken clouds.9 mph94%30.04 "HgN/A
4:25 PM63 °FBroken clouds.12 mph94%30.04 "HgN/A
4:04 PM64 °FBroken clouds.13 mph83%30.01 "Hg4 mi
3:56 PM64 °FBroken clouds.14 mph88%30.01 "HgN/A
3:25 PM63 °FPartly sunny.13 mph94%30.04 "HgN/A
2:25 PM64 °FBroken clouds.15 mph88%30.04 "HgN/A
1:25 PM63 °FMostly cloudy.14 mph88%30.04 "HgN/A
12:25 PM63 °FMostly cloudy.15 mph88%30.04 "HgN/A
11:25 AM61 °FBroken clouds.17 mph88%30.04 "HgN/A
10:25 AM61 °FBroken clouds.13 mph88%30.04 "HgN/A
9:25 AM59 °FPartly sunny.12 mph94%30.04 "HgN/A
8:25 AM61 °FPartly sunny.12 mph88%30.04 "HgN/A
7:25 AM59 °FPartly cloudy.10 mph94%30.04 "HgN/A
6:25 AM59 °FPassing clouds.10 mph88%30.04 "HgN/A
5:25 AM61 °FPartly cloudy.10 mph83%30.04 "HgN/A
4:25 AM59 °FPassing clouds.10 mph88%30.04 "HgN/A
3:25 AM59 °FPassing clouds.10 mph88%30.04 "HgN/A
2:25 AM61 °FOvercast.10 mph83%30.04 "HgN/A
1:25 AM61 °FMostly cloudy.10 mph77%30.04 "HgN/A
12:25 AM59 °FOvercast.8 mph82%30.04 "HgN/A
11:25 PM
Aug 29
59 °FPartly cloudy.8 mph82%30.04 "HgN/A
10:25 PM59 °FPassing clouds.7 mph82%30.04 "HgN/A
8:25 PM64 °FPassing clouds.12 mph64%30.04 "HgN/A
7:25 PM66 °FPartly sunny.12 mph64%30.01 "HgN/A
Weather by CustomWeather, © 2014

See weather overviewHow to use our weather pages